DELTA 1 DEB

Satellite information

Favourite Embed

Satellite Type and Status

DEBRISIN ORBIT

Key statistics

Satellite DELTA 1 DEB at a glance.

Uptime

19449

Days in orbit

Revolutions

≈ 14.1

Per day

Orbit

SSO

Sun Synchronous Orbit

Inclination

97.7

Latest

Satellite identification and parameters

Extended collection of information and parameters for DELTA 1 DEB.

Object identification

Identified? True

Debris? True

Object name: DELTA 1 DEB

International designator: 1972-058BS

Object number (NORAD): 7907

Object ID (CCSDS): 7907

Country: UNITED STATES OF AMERICA (US)

Current information (Y/N): Y

RCS size: MEDIUM

Orbital parameters

Period: 102.275 minutes

Inclination: 97.6744 deg

SMA: 7244.448 km

Apoapsis: 1061.584 km

Periapsis: 671.042 km

RAAN: 113.0352 deg

Eccentricy: 0.0269546

Argument of periapsis: 202.5161 deg

Mean anomaly: 156.4002 deg

Mean motion: 14.07974586 rev/day

Mean motion (dot): 0.00001667 rev/day2

B* drag term: 0.00071837 1/REarth

Two-line elements (TLE)

Creation date: Oct. 21, 2025, 11:56 p.m.

Reference frame: TEME

Reference center: EARTH

Epoch: Oct. 21, 2025, 6:03 p.m. UTC

TLE line 0: 0 DELTA 1 DEB

TLE line 1: 1 7907U 72058BS 25294.75251075 .00001667 00000-0 71837-3 0 9998

TLE line 2: 2 7907 97.6744 113.0352 0269546 202.5161 156.4002 14.07974586545975

Live tracking on map

Real-time ground track for satellite DELTA 1 DEB.

In-orbit conjunctions

A list of the most updated potential collisions computed for object DELTA 1 DEB.

Target Orbit TCA Probability of collision Miss distance Type
CZ-6A DEB SSO 2025-08-08 01:25:05 0.0002998512 85.0 (m) DEBRIS
FENGYUN 1C DEB SSO 2025-05-07 22:31:49 0.0002035749 103.0 (m) DEBRIS
SL-8 R/B LEO 2024-10-30 21:49:58 0.0009535373 71.0 (m) ROCKET BODY
CZ-6A DEB LEO 2024-10-14 20:33:32 0.0001291326 871.0 (m) DEBRIS

Associated space launch

Earth observation satellite

DELTA 1 DEB was lifted into orbit during the mission ‘Delta 0900 | Landsat 1’, on board a Delta 0900 space rocket.

The launch took place on July 23, 1972, 6:06 p.m. from Space Launch Complex 2W.

For more information about the launch, click the button.

Launch to space Delta 0900 | Landsat 1
Delta 0900 | Landsat 1

Agency: N/A

Status: Launch Successful

Launch date: July 23, 1972, 6:06 p.m. UTC

Rocket: Delta 0900

Launch pad: Space Launch Complex 2W

Location: Vandenberg SFB, CA, USA

...

Latest news about this satellite

There are no fresh news available about this satellite. Check back as we update our databases every day.


Newsletter sign-up

Weekly statistics, charts and insights to help you stay on top of the space industry.